CAPE
1 3 4 4 4 5 5 4 4 5 4 4 6 5 3 1 1 0 0 0 0 0 0 0 0 0 2 0 0 0 0 0 0 0 0 0 0 0 0 0 0 0 0 610 1314
9 2 5 5 5 5 5 3 3 4 4 4 5 8 8 4 0 0 0 0 0 0 0 0 0 2 2 0 1 0 0 0 0 0 0 0 0 0 0 0 0 0 0 537 944
5 9 9 9 12 4 4 5 6 5 4 6 8 7 9 1 0 0 0 0 0 0 0 0 0 1 2 0 1 0 0 0 0 0 0 0 0 0 0 0 0 0 0 64 720
8 5 9 2 6 4 4 5 5 3 2 4 6 7 12 1 0 0 0 0 0 0 0 0 0 0 0 0 0 0 0 0 0 0 0 0 0 0 0 0 0 0 0 0 355
11 9 1 2 8 9 7 4 3 0 0 0 0 12 7 0 0 0 0 0 0 0 0 0 0 0 0 0 0 0 0 0 0 0 0 0 0 0 0 0 0 0 0 0 77
12 23 21 7 11 4 3 3 0 0 0 0 0 0 5 0 0 0 0 0 0 0 0 0 0 0 0 0 0 0 0 0 0 0 0 0 0 0 0 0 0 0 0 0 0
14 6 8 17 19 5 4 0 0 0 0 0 0 0 2 0 0 0 0 0 0 15 19 18 6 6 2 0 0 0 0 1 0 0 0 3 0 0 0 0 0 0 0 0 0
8 4 12 15 17 15 2 0 0 0 0 0 0 5 1 0 0 0 0 0 0 0 16 42 36 37 13 11 7 2 4 0 0 0 0 7 0 0 0 0 0 0 0 0 0
9 14 8 14 9 2 2 0 0 0 2 2 11 10 0 0 0 0 0 0 0 0 0 25 55 32 47 30 16 4 0 0 0 0 0 9 0 0 0 0 0 0 0 0 0
10 8 13 7 0 1 0 0 0 0 0 0 1 0 0 0 0 0 0 1 0 0 18 17 44 23 26 36 0 0 3 0 0 0 3 3 0 0 0 0 0 0 0 0 0
10 4 4 4 0 0 0 0 0 0 0 0 0 0 0 0 0 0 0 3 29 30 11 24 35 5 3 2 0 0 0 0 0 0 6 7 0 0 0 0 0 0 0 0 0
4 3 9 4 1 0 0 0 3 4 0 0 0 0 0 0 0 0 0 0 6 9 17 31 17 0 0 5 20 11 14 1 0 4 10 5 4 4 1 0 0 0 0 0 0
0 3 8 10 0 1 0 0 0 0 0 0 0 0 0 0 0 0 6 9 1 5 25 27 0 0 15 20 45 19 9 1 5 11 5 31 7 1 0 0 0 0 0 0 0
1 7 6 8 0 0 0 0 0 0 0 0 6 7 0 0 0 0 0 0 1 0 0 33 0 17 28 29 14 42 8 25 26 22 1 15 0 0 0 0 0 0 0 0 0
2 2 1 0 2 0 0 0 0 21 0 0 0 0 0 0 0 0 0 11 0 0 0 0 11 3 14 6 6 12 27 2 15 28 19 20 1 0 0 0 0 0 0 0 0
0 0 0 0 0 0 0 0 0 3 0 0 0 0 0 0 0 1 0 0 1 0 0 1 10 11 0 0 1 4 18 20 41 36 18 0 4 0 0 0 0 0 0 0 0
0 0 0 0 0 0 0 0 2 1 0 0 0 0 0 2 3 5 4 0 0 0 0 0 0 2 4 10 25 20 23 30 4 21 0 0 3 0 0 0 0 0 0 0 0
0 0 0 0 0 0 0 0 0 0 1 0 0 0 3 15 2 9 10 1 0 0 0 0 0 45 7 16 11 0 15 22 1 0 0 0 0 0 0 0 0 0 0 0 0
0 0 0 0 0 0 0 0 1 2 0 0 0 12 6 7 3 12 1 3 2 0 0 0 0 0 0 0 15 1 27 0 4 0 4 8 0 0 0 0 0 0 0 0 0
0 0 2 0 0 0 3 8 3 6 1 1 2 6 5 2 2 5 5 0 0 0 0 0 0 0 0 0 0 58 0 26 10 0 0 1 2 1 4 11 2 0 0 0 0
1 0 2 0 0 6 14 1 0 7 4 1 8 1 4 11 5 3 1 0 0 0 0 1 2 0 0 0 0 2 0 0 0 0 0 4 2 3 5 18 15 2 0 0 0
6 0 0 0 4 8 5 0 4 15 23 4 5 11 16 9 5 2 1 4 0 0 0 1 1 0 0 0 1 3 1 21 6 0 0 0 3 9 0 0 7 9 0 0 0
1 0 3 0 8 1 0 0 1 0 1 0 7 5 0 8 8 0 12 6 7 0 6 0 0 0 0 0 0 0 0 1 2 0 2 8 6 18 0 0 0 0 1 0 0
5 3 2 2 3 0 4 0 0 10 1 11 4 4 5 6 5 5 3 1 8 0 1 1 0 2 0 0 0 0 0 0 0 0 0 0 0 12 0 0 0 0 8 0 0
7 9 10 2 0 4 7 1 5 5 13 17 2 5 10 7 2 12 4 5 6 1 0 1 0 0 0 0 0 0 0 0 0 0 0 2 2 3 3 0 0 2 6 0 0
7 4 2 3 6 5 4 1 5 0 5 3 14 2 4 6 12 4 4 0 1 1 8 2 0 0 0 0 0 0 0 0 0 0 0 0 0 0 0 0 0 0 0 0 0
10 8 8 0 3 5 2 1 0 12 13 14 9 19 3 4 3 0 1 3 2 5 10 6 6 0 0 0 0 0 0 0 2 0 0 0 0 0 2 0 0 0 0 0 0
CIN
-1 -0 -0 -0 -0 -0 -0 -0 -0 -1 -1 -1 -0 -0 -0 -0 -0 -0 -0 -0 -0 -0 -0 -0 -0 -0 -0 -0 -0 -0 -0 -0 -0 -0 -0 -0 -0 -0 -0 -0 -0 -0 -0 -8 -18
-1 -0 -0 -1 -1 -1 -0 -0 -0 -0 -0 -1 -1 -0 -1 -0 -0 -0 -0 -0 -0 -0 -0 -0 -0 -0 -0 -0 -0 -0 -0 -0 -0 -0 -0 -0 -0 -0 -0 -0 -0 -0 -0 -48 -28
-0 -1 -0 -0 -1 -0 -0 -1 -0 -0 -0 -1 -0 -0 -0 -1 -0 -0 -0 -0 -0 -0 -0 -0 -0 -1 -1 -0 -1 -0 -0 -0 -0 -0 -0 -0 -0 -0 -0 -0 -0 -0 -0 -66 -12
-0 -1 -0 -0 -0 -0 -1 -1 -1 -1 -0 -0 -0 -0 -0 -0 -0 -0 -0 -0 -0 -0 -0 -0 -0 -0 -0 -0 -0 -0 -0 -0 -0 -0 -0 -0 -0 -0 -0 -0 -0 -0 -0 -0 -33
-0 -0 -1 -1 -0 -1 -0 -0 -0 -0 -0 -0 -0 -0 -0 -0 -0 -0 -0 -0 -0 -0 -0 -0 -0 -0 -0 -0 -0 -0 -0 -0 -0 -0 -0 -0 -0 -0 -0 -0 -0 -0 -0 -0 -48
-1 -0 -0 -0 -1 -0 -0 -1 -0 -0 -0 -0 -0 -0 -0 -0 -0 -0 -0 -0 -0 -0 -0 -0 -0 -0 -0 -0 -0 -0 -0 -0 -0 -0 -0 -0 -0 -0 -0 -0 -0 -0 -0 -0 -0
-0 -1 -1 -0 -1 -1 -1 -0 -0 -0 -0 -0 -0 -0 -0 -0 -0 -0 -0 -0 -0 -2 -1 -1 -1 -1 -2 -0 -0 -0 -0 -2 -0 -0 -0 -0 -0 -0 -0 -0 -0 -0 -0 -0 -0
-1 -0 -0 -1 -0 -0 -0 -0 -0 -0 -0 -0 -0 -0 -0 -0 -0 -0 -0 -0 -0 -0 -1 -2 -1 -1 -1 -2 -2 -2 -2 -0 -0 -1 -0 -0 -0 -0 -0 -0 -0 -0 -0 -0 -0
-1 -0 -0 -1 -0 -0 -0 -0 -0 -0 -0 -1 -0 -0 -0 -0 -0 -0 -0 -0 -0 -1 -0 -3 -4 -1 -2 -0 -1 -1 -0 -0 -0 -0 -0 -1 -0 -0 -0 -0 -0 -0 -0 -0 -0
-1 -1 -0 -0 -0 -0 -0 -0 -0 -0 -0 -0 -1 -0 -0 -0 -0 -0 -0 -0 -0 -0 -1 -0 -0 -0 -0 -0 -0 -0 -1 -2 -0 -0 -0 -1 -0 -0 -0 -0 -0 -0 -0 -0 -0
-0 -0 -0 -1 -0 -0 -0 -0 -0 -0 -0 -0 -0 -0 -0 -0 -0 -0 -0 -0 -0 -1 -0 -0 -0 -0 -0 -0 -0 -0 -0 -0 -0 -0 -3 -2 -0 -0 -0 -0 -0 -0 -0 -0 -0
-1 -0 -1 -0 -0 -0 -0 -0 -0 -0 -0 -0 -0 -0 -0 -0 -0 -0 -0 -0 -0 -0 -2 -1 -1 -0 -0 -0 -0 -0 -1 -1 -2 -4 -2 -1 -1 -4 -2 -0 -0 -0 -0 -0 -0
-0 -0 -0 -1 -0 -1 -0 -0 -0 -0 -0 -0 -0 -1 -0 -0 -0 -0 -3 -0 -3 -0 -0 -2 -0 -0 -3 -2 -1 -0 -2 -1 -1 -4 -8 -1 -1 -3 -0 -0 -0 -0 -0 -0 -0
-0 -0 -0 -1 -0 -0 -0 -0 -0 -0 -0 -0 -3 -0 -0 -0 -0 -0 -0 -0 -3 -0 -0 -3 -0 -1 -1 -2 -2 -0 -2 -0 -2 -4 -0 -8 -0 -0 -0 -0 -0 -0 -0 -0 -0
-1 -0 -0 -0 -1 -0 -0 -0 -0 -1 -0 -0 -0 -0 -0 -0 -0 -0 -0 -3 -0 -0 -0 -0 -0 -3 -2 -7 -5 -4 -3 -2 -3 -0 -2 -10 -5 -0 -0 -0 -0 -0 -0 -0 -0
-0 -0 -0 -0 -0 -0 -0 -0 -0 -0 -0 -0 -0 -0 -0 -0 -0 -4 -0 -0 -8 -0 -0 -0 -13 -16 -2 -0 -15 -6 -2 -4 -1 -1 -2 -0 -2 -0 -0 -0 -0 -0 -0 -0 -0
-0 -0 -0 -0 -0 -0 -0 -0 -2 -1 -0 -0 -0 -0 -0 -9 -8 -16 -7 -0 -0 -0 -0 -0 -0 -32 -36 -3 -5 -20 -2 -4 -4 -2 -1 -0 -1 -0 -0 -0 -0 -0 -0 -0 -0
-0 -0 -0 -0 -0 -0 -0 -0 -0 -0 -3 -1 -1 -0 -5 -7 -4 -7 -7 -0 -0 -0 -0 -0 -0 -12 -5 -6 -9 -0 -0 -2 -0 -0 -3 -0 -3 -0 -0 -0 -0 -0 -0 -0 -0
-0 -0 -0 -0 -0 -0 -0 -3 -2 -5 -8 -0 -0 -4 -5 -8 -5 -7 -1 -3 -1 -2 -0 -0 -0 -0 -0 -0 -7 -3 -7 -0 -38 -0 -18 -6 -0 -0 -0 -0 -0 -0 -0 -0 -0
-0 -0 -3 -0 -0 -0 -1 -2 -2 -20 -1 -8 -3 -2 -3 -3 -5 -5 -6 -4 -0 -0 -0 -0 -0 -0 -0 -0 -0 -5 -0 -2 -1 -0 -0 -5 -7 -2 -7 -2 -3 -0 -0 -0 -0
-3 -0 -5 -0 -0 -5 -1 -3 -8 -12 -4 -9 -15 -2 -8 -7 -3 -4 -5 -4 -19 -0 -0 -0 -0 -0 -0 -0 -0 -17 -17 -0 -0 -0 -10 -8 -7 -6 -6 -10 -10 -1 -0 -0 -0
-1 -0 -0 -0 -6 -5 -3 -0 -18 -32 -11 -12 -8 -8 -2 -3 -3 -3 -6 -3 -0 -0 -0 -1 -0 -0 -0 -0 -0 -0 -1 -14 -4 -0 -0 -4 -11 -7 -1 -0 -31 -27 -0 -0 -0
-1 -0 -4 -0 -2 -3 -0 -0 -4 -4 -5 -2 -17 -12 -9 -4 -9 -5 -4 -7 -4 -0 -1 -0 -0 -0 -0 -0 -0 -0 -0 -0 -0 -0 -5 -4 -6 -9 -0 -0 -0 -0 -19 -0 -0
-0 -1 -3 -1 -9 -2 -1 -0 -0 -16 -7 -10 -19 -4 -5 -5 -5 -8 -5 -2 -6 -5 -1 -1 -0 -0 -0 -0 -0 -0 -0 -0 -0 -0 -1 -0 -0 -29 -0 -0 -0 -0 -6 -0 -0
-2 -1 -10 -0 -0 -1 -3 -0 -1 -4 -8 -5 -19 -9 -5 -1 -2 -5 -5 -7 -6 -3 -0 -1 -1 -0 -0 -0 -0 -0 -0 -0 -0 -0 -0 -1 -5 -5 -27 -0 -0 -9 -13 -0 -0
-0 -0 -0 -1 -1 -3 -11 -4 -4 -1 -2 -2 -5 -4 -6 -3 -6 -3 -5 -1 -3 -6 -6 -7 -2 -0 -0 -0 -0 -0 -0 -0 -0 -0 -0 -0 -0 -0 -0 -1 -0 -0 -0 -0 -0
-3 -0 -0 -0 -2 -8 -5 -5 -1 -7 -23 -4 -5 -3 -2 -6 -3 -1 -2 -4 -3 -3 -3 -3 -2 -1 -0 -0 -0 -0 -0 -0 -0 -0 -0 -0 -4 -0 -18 -0 -0 -0 -0 -0 -0
Wind_Speed
34 34 35 35 36 37 37 38 38 39 38 38 38 37 37 39 42 40 28 17 18 10 15 14 14 14 16 18 19 19 25 28 27 27 29 24 24 23 20 25 26 24 27 21 7
35 36 36 37 38 38 38 39 40 41 41 40 39 38 38 40 43 41 21 21 16 20 14 15 15 15 20 20 20 20 29 29 27 27 26 23 22 23 23 26 28 27 24 20 15
36 37 38 38 39 39 39 40 41 42 41 42 41 39 38 39 37 29 26 20 13 13 14 16 17 18 24 23 22 26 34 30 28 28 27 28 27 25 26 29 26 25 26 21 20
35 36 38 39 40 43 43 44 44 43 42 40 38 34 32 31 35 24 26 28 17 16 17 19 20 23 27 29 26 36 33 33 30 28 28 30 31 33 30 30 28 25 28 23 20
39 39 40 41 44 45 45 45 45 45 40 37 34 31 29 29 28 28 26 28 18 18 21 23 25 25 30 31 33 37 38 35 37 34 32 33 35 35 34 30 30 31 26 27 23
40 41 41 43 44 46 48 48 49 45 41 37 33 29 30 40 27 26 24 23 21 18 22 24 28 29 33 38 36 35 41 42 36 36 36 39 40 35 32 31 31 31 30 28 27
42 45 46 46 48 49 50 51 52 49 47 39 30 25 32 35 24 26 25 26 23 22 25 23 24 27 33 43 43 42 47 42 42 40 34 31 46 43 34 30 31 36 35 33 30
45 47 47 48 49 50 52 54 51 51 42 33 26 25 40 30 30 33 34 35 27 27 28 25 25 33 35 34 37 39 45 52 43 38 38 33 56 34 32 32 34 34 34 34 34
46 46 47 48 50 52 54 54 53 45 34 30 28 27 43 29 33 32 30 33 28 27 27 27 30 36 34 42 47 45 52 48 45 34 36 36 51 41 32 29 34 36 38 37 35
45 47 48 49 50 52 53 53 44 33 34 27 28 35 35 38 40 40 35 32 32 30 32 34 33 39 41 43 56 53 50 46 45 34 35 39 46 36 27 34 36 35 37 38 38
46 47 48 49 50 51 49 50 48 37 53 40 43 50 55 50 50 45 36 37 31 33 44 35 43 50 48 49 49 37 40 44 41 37 31 37 43 38 40 41 39 37 37 39 38
46 47 48 49 49 45 43 44 42 41 56 49 47 45 42 42 53 43 32 38 37 46 41 46 52 51 48 44 43 45 48 46 36 31 34 38 45 39 39 41 41 41 40 40 38
46 47 48 48 47 37 44 39 36 44 50 50 37 36 33 46 51 43 34 34 40 46 44 50 51 47 50 51 49 50 49 46 43 36 34 35 47 44 44 42 41 40 42 41 42
46 47 48 49 38 43 41 38 38 39 53 44 38 32 34 48 37 39 24 29 29 36 38 48 45 49 51 57 52 55 43 47 46 40 45 32 55 39 40 45 43 43 43 42 41
47 46 47 45 40 41 39 38 40 34 64 41 38 31 45 45 40 33 38 26 35 40 33 35 39 44 52 54 52 49 40 38 46 44 44 38 42 44 40 44 38 39 40 41 38
47 47 47 40 35 34 36 39 36 44 57 40 46 52 52 44 41 38 37 29 31 40 38 39 39 38 49 56 54 50 50 47 46 45 50 46 42 54 43 39 37 37 36 35 35
48 47 42 34 37 35 37 39 47 49 46 47 55 49 42 42 42 36 37 24 28 33 34 35 40 48 36 43 47 47 47 42 42 44 47 38 41 43 26 29 35 40 39 32 31
47 44 36 31 31 35 39 44 51 42 46 43 43 41 37 37 39 39 33 25 26 27 30 30 30 34 37 45 39 47 40 36 37 37 37 27 34 37 37 40 40 32 28 31 29
46 39 32 31 32 34 39 46 45 41 40 39 40 34 36 38 36 37 30 26 24 25 26 26 26 31 36 48 42 42 51 47 36 25 32 34 39 38 33 36 35 31 32 31 32
42 41 33 33 33 33 36 39 35 34 32 33 33 30 36 37 38 36 28 27 28 27 27 26 30 28 26 22 33 29 37 37 40 35 32 29 33 32 20 23 22 25 31 32 31
40 43 32 34 30 31 40 35 35 31 28 27 28 29 29 32 39 36 29 29 29 28 26 25 26 27 23 20 24 32 28 29 29 31 27 29 32 27 28 19 18 19 18 21 22
40 46 33 34 39 35 36 35 32 27 25 23 20 22 23 36 35 33 33 29 29 29 27 24 27 28 31 26 22 23 31 32 34 33 37 34 31 17 11 13 16 17 17 17 17
44 40 29 33 42 41 36 34 29 25 23 22 21 19 22 32 34 34 30 31 29 29 25 26 23 26 22 21 17 21 22 25 31 30 36 33 24 8 9 14 18 18 16 17 19
38 43 39 32 32 36 39 34 30 23 21 17 19 17 24 37 33 34 34 30 31 28 26 23 25 25 25 26 29 29 29 24 26 30 29 32 29 19 25 31 27 23 22 22 24
34 37 36 41 37 35 32 30 29 28 18 17 19 21 34 37 38 34 35 33 30 22 24 23 27 27 28 30 30 31 30 30 30 30 28 29 33 36 25 28 26 25 26 28 28
35 37 31 35 30 30 30 29 29 27 23 20 19 27 37 37 34 35 35 33 33 30 28 27 27 30 29 27 26 27 25 22 21 25 31 30 31 23 25 27 30 31 30 29 26
28 26 29 32 30 29 28 29 26 24 20 18 13 9 34 31 27 30 35 35 35 35 33 30 27 26 27 22 23 18 17 17 17 17 25 28 25 26 32 32 31 32 30 27 25
Wind_Direction
351 349 347 346 344 341 339 337 334 330 328 327 326 326 323 317 306 302 308 299 314 272 302 303 292 290 294 291 289 288 282 281 280 283 283 288 283 285 289 281 276 280 276 289 256
349 348 348 343 343 343 341 336 332 328 326 326 326 325 322 318 310 283 294 304 288 298 278 278 278 278 281 281 285 274 277 279 284 282 285 286 286 287 283 281 273 274 277 279 265
349 346 345 345 343 344 342 338 334 330 327 323 322 322 322 321 320 318 323 311 284 285 272 273 278 273 275 280 271 279 274 279 282 284 283 281 282 284 281 278 278 276 273 269 262
352 352 348 345 343 337 335 334 332 330 328 328 327 325 324 324 316 324 319 311 290 281 270 269 267 263 272 266 269 277 278 276 283 279 279 278 280 279 277 276 278 280 273 270 260
345 344 342 341 336 335 334 333 332 330 330 330 330 330 325 315 310 317 317 314 295 274 263 263 259 260 266 274 270 269 276 277 276 276 277 279 275 275 277 275 273 272 273 268 262
345 342 341 338 337 334 331 332 330 329 329 326 324 323 315 305 321 320 314 311 299 274 267 260 270 259 275 273 270 280 273 272 274 274 274 274 274 273 276 272 272 268 266 266 264
345 340 337 336 333 332 331 330 327 327 325 324 321 314 302 300 318 323 320 302 293 283 269 260 260 264 274 276 275 271 272 273 268 269 271 276 272 266 270 271 271 265 263 263 260
343 339 338 335 334 332 332 329 329 328 329 330 329 318 306 321 317 305 298 291 292 280 270 264 262 268 269 276 279 273 268 268 266 264 266 270 269 278 266 261 264 266 264 261 258
343 343 341 338 334 331 330 329 328 330 336 336 328 318 312 328 320 320 311 296 285 283 272 263 264 262 265 266 270 267 265 263 267 267 262 257 271 271 273 263 263 262 261 261 259
345 343 342 340 337 335 333 332 334 339 339 338 330 319 314 316 319 318 316 307 290 282 272 261 261 258 255 254 258 262 262 263 266 260 262 262 265 272 272 265 264 263 260 258 256
345 344 342 341 339 338 339 338 339 330 329 324 316 308 308 313 314 311 305 306 292 279 269 264 254 249 246 244 250 264 261 263 265 263 259 261 265 265 266 266 264 263 259 256 255
344 343 343 342 341 341 343 342 342 333 323 322 314 312 316 325 314 320 314 289 284 274 269 264 257 250 249 253 254 256 261 263 269 261 260 265 267 268 265 264 263 260 257 256 255
345 344 342 342 341 346 343 344 344 339 326 327 329 330 329 330 321 319 323 311 288 276 267 261 257 258 256 256 255 254 253 256 263 265 265 267 268 267 266 263 262 259 257 255 254
345 344 344 343 346 343 342 346 344 341 327 328 330 331 332 332 322 328 342 323 311 282 271 268 259 257 253 253 251 254 252 257 258 259 263 259 266 265 264 260 259 256 255 253 252
345 345 345 345 340 342 343 344 342 341 324 335 338 341 334 331 324 323 322 315 309 302 286 269 263 253 252 251 248 251 255 250 258 254 260 261 264 266 264 260 259 255 254 252 252
347 346 345 348 347 349 345 342 342 332 326 335 339 336 333 333 330 328 319 323 307 301 293 270 267 263 252 247 247 250 253 257 254 255 253 253 259 262 261 258 259 260 259 256 253
347 346 348 350 347 350 347 344 335 330 340 336 337 340 340 341 340 336 322 326 321 308 295 288 267 251 256 247 244 242 240 247 249 247 253 251 252 254 265 264 265 261 261 260 255
348 348 352 355 354 352 347 339 333 337 338 340 342 341 347 349 345 338 330 321 319 306 294 300 276 253 254 242 243 231 234 237 242 249 252 247 255 254 262 268 263 268 269 267 257
351 354 355 357 355 352 344 339 339 343 342 343 345 349 349 348 345 332 332 337 314 312 296 288 265 283 258 241 239 237 233 236 251 265 257 251 256 263 266 270 271 267 267 264 260
353 351 353 357 355 350 346 342 346 349 348 349 347 354 349 346 340 329 328 323 311 302 299 265 270 263 287 251 242 242 234 235 242 253 254 254 256 254 268 272 281 274 268 267 263
354 351 359 358 358 353 347 349 346 351 354 355 350 350 354 350 331 325 319 312 312 296 293 273 252 265 264 244 250 238 239 238 251 245 257 254 258 263 269 279 284 293 295 279 266
355 350 0 1 352 355 352 351 348 351 355 356 360 358 359 343 334 320 309 308 306 300 286 277 260 266 255 271 262 253 248 246 249 249 252 261 262 278 275 297 297 293 292 296 286
351 351 2 4 354 353 352 351 352 357 357 357 356 360 358 344 328 310 299 312 305 299 290 286 270 265 261 258 273 252 267 266 257 253 245 246 256 255 274 281 282 281 286 292 288
355 351 356 1 2 356 352 353 352 357 356 8 358 3 358 331 298 303 294 302 302 290 289 286 268 256 252 259 260 252 259 266 256 243 248 248 252 253 255 246 270 277 272 279 285
358 355 357 352 353 353 356 353 356 358 2 4 6 1 342 330 302 300 297 295 293 292 285 284 264 257 252 257 259 254 255 258 254 250 247 247 245 239 253 250 256 268 268 273 280
354 354 357 348 353 352 357 356 358 360 3 355 351 349 327 304 297 296 293 287 282 275 270 275 253 254 247 250 253 257 260 260 256 249 240 246 245 257 246 251 253 259 264 269 273
359 359 355 353 355 352 354 353 350 354 5 2 352 303 292 287 279 278 281 273 267 265 260 260 250 242 237 252 254 244 256 271 270 265 250 247 264 264 249 254 253 259 267 272 278